AFR663 LFPG-KJFK

Flight info

Callsign AFR663
Flight time N/A
Altitude 36000
Route ELCOB6K ELCOB UT300 SENLO DCT JSY DCT LIZAD DCT ARKIL DCT LIMRI/M077F370 NATH JOOPY/N0454F380 N328A TUSKY DCT PLYMM PARCH4
Aircraft A321/M-SDE3FGHIRWY/LB1

Departure

Time 2026-05-09 11:26
Airport Charles de Gaulle International Airport (LFPG)

Arrival

Time N/A
Airport John F. Kennedy International Airport (KJFK)
Time Latitude Longitude Altitude Speed Heading
2026-05-09 10:55 49.00684 2.57317 363 ft 0 kts 135°
2026-05-09 11:10 49.00684 2.57316 382 ft 0 kts 135°
2026-05-09 11:15 49.00699 2.57291 362 ft 4 kts 122°
2026-05-09 11:16 49.00709 2.57256 361 ft 4 kts 81°
2026-05-09 11:16 49.00701 2.57235 357 ft 0 kts 19°
2026-05-09 11:18 49.00703 2.57236 357 ft 1 kts 19°
2026-05-09 11:18 49.00723 2.57233 357 ft 6 kts 348°
2026-05-09 11:18 49.00783 2.57217 356 ft 12 kts 351°
2026-05-09 11:19 49.00850 2.57128 355 ft 16 kts 279°
2026-05-09 11:19 49.00844 2.56930 354 ft 22 kts 265°
2026-05-09 11:19 49.00830 2.56674 354 ft 27 kts 266°
2026-05-09 11:19 49.00809 2.56363 361 ft 32 kts 259°
2026-05-09 11:20 49.00774 2.56004 359 ft 37 kts 263°
2026-05-09 11:20 49.00739 2.55596 357 ft 41 kts 262°
2026-05-09 11:20 49.00813 2.55321 360 ft 30 kts 351°
2026-05-09 11:20 49.01025 2.55215 356 ft 34 kts 343°
2026-05-09 11:21 49.01245 2.55047 359 ft 34 kts 307°
2026-05-09 11:21 49.01430 2.54919 361 ft 32 kts 351°
2026-05-09 11:21 49.01666 2.54873 354 ft 36 kts 355°
2026-05-09 11:21 49.01848 2.54759 360 ft 26 kts 275°
2026-05-09 11:22 49.01828 2.54468 358 ft 29 kts 268°
2026-05-09 11:22 49.01816 2.54157 362 ft 30 kts 265°
2026-05-09 11:22 49.01799 2.53843 354 ft 30 kts 265°
2026-05-09 11:22 49.01781 2.53527 354 ft 30 kts 264°
2026-05-09 11:23 49.01759 2.53209 354 ft 30 kts 264°
2026-05-09 11:23 49.01743 2.52890 361 ft 30 kts 266°
2026-05-09 11:23 49.01727 2.52569 356 ft 30 kts 265°
2026-05-09 11:23 49.01709 2.52251 354 ft 31 kts 265°
2026-05-09 11:24 49.01691 2.51927 354 ft 31 kts 265°
2026-05-09 11:24 49.01675 2.51602 361 ft 31 kts 265°
2026-05-09 11:24 49.01705 2.51309 359 ft 27 kts 325°
2026-05-09 11:24 49.01885 2.51246 358 ft 27 kts 355°
2026-05-09 11:25 49.02036 2.51358 357 ft 25 kts 49°
2026-05-09 11:25 49.02079 2.51564 360 ft 0 kts 88°
2026-05-09 11:25 49.02079 2.51580 360 ft 14 kts 88°
2026-05-09 11:26 49.02106 2.52131 360 ft 87 kts 85°
2026-05-09 11:26 49.02174 2.53370 354 ft 145 kts 85°
2026-05-09 11:26 49.02273 2.55108 481 ft 177 kts 85°
2026-05-09 11:26 49.02378 2.57002 1009 ft 182 kts 85°
2026-05-09 11:27 49.02498 2.58932 1681 ft 185 kts 85°
2026-05-09 11:27 49.02612 2.60900 2304 ft 190 kts 86°
2026-05-09 11:27 49.02716 2.62998 2533 ft 208 kts 87°
2026-05-09 11:27 49.02827 2.65273 2771 ft 226 kts 86°
2026-05-09 11:28 49.02909 2.66942 2927 ft 242 kts 85°
2026-05-09 11:28 49.03039 2.69573 3521 ft 252 kts 86°
2026-05-09 11:28 49.03209 2.72220 4267 ft 258 kts 79°
2026-05-09 11:28 49.04058 2.74668 4950 ft 267 kts 45°
2026-05-09 11:29 49.05715 2.75967 5620 ft 277 kts 10°
2026-05-09 11:29 49.07625 2.75646 6320 ft 283 kts 334°
2026-05-09 11:29 49.09127 2.73803 6978 ft 285 kts 302°
2026-05-09 11:29 49.09949 2.71087 7721 ft 282 kts 283°
2026-05-09 11:30 49.10346 2.68170 8504 ft 279 kts 268°
2026-05-09 11:30 49.10098 2.65238 9273 ft 279 kts 253°
2026-05-09 11:30 49.09509 2.62418 10078 ft 279 kts 247°
2026-05-09 11:30 49.08722 2.59668 10531 ft 292 kts 245°
2026-05-09 11:31 49.07893 2.56700 10692 ft 315 kts 246°
2026-05-09 11:31 49.07032 2.53521 11015 ft 330 kts 246°
2026-05-09 11:31 49.06156 2.50261 11650 ft 334 kts 246°
2026-05-09 11:31 49.05265 2.46972 12335 ft 338 kts 246°
2026-05-09 11:32 49.04356 2.43648 12994 ft 341 kts 245°
2026-05-09 11:32 49.03432 2.40299 13675 ft 344 kts 245°
2026-05-09 11:32 49.02612 2.36857 14291 ft 348 kts 254°
2026-05-09 11:32 49.02246 2.33182 14881 ft 354 kts 265°
2026-05-09 11:33 49.02273 2.29414 15489 ft 358 kts 269°
2026-05-09 11:33 49.02327 2.25610 16098 ft 360 kts 269°
2026-05-09 11:33 49.02419 2.17923 17342 ft 366 kts 269°
2026-05-09 11:34 49.02464 2.14030 17947 ft 369 kts 269°
2026-05-09 11:34 49.02510 2.10106 18495 ft 372 kts 269°
2026-05-09 11:34 49.02553 2.06155 19001 ft 375 kts 269°
2026-05-09 11:34 49.02596 2.02171 19519 ft 377 kts 269°
2026-05-09 11:35 49.02639 1.98159 20051 ft 380 kts 268°
2026-05-09 11:35 49.02681 1.94130 20581 ft 382 kts 268°
2026-05-09 11:35 49.02720 1.90068 21106 ft 385 kts 268°
2026-05-09 11:35 49.02757 1.85980 21624 ft 387 kts 268°
2026-05-09 11:36 49.02795 1.81860 22132 ft 390 kts 268°
2026-05-09 11:36 49.02834 1.77717 22625 ft 392 kts 268°
2026-05-09 11:36 49.02870 1.73546 23117 ft 395 kts 268°
2026-05-09 11:36 49.02903 1.69343 23579 ft 398 kts 268°
2026-05-09 11:37 49.02934 1.65112 23976 ft 401 kts 268°
2026-05-09 11:37 49.02964 1.60854 24382 ft 402 kts 267°
2026-05-09 11:37 49.02993 1.56584 24789 ft 404 kts 267°
2026-05-09 11:37 49.03022 1.52296 25186 ft 406 kts 267°
2026-05-09 11:38 49.03051 1.47994 25590 ft 407 kts 267°
2026-05-09 11:38 49.03076 1.43673 25987 ft 409 kts 267°
2026-05-09 11:38 49.03098 1.39338 26378 ft 410 kts 267°
2026-05-09 11:38 49.03121 1.34982 26766 ft 412 kts 267°
2026-05-09 11:39 49.03142 1.30618 27158 ft 413 kts 266°
2026-05-09 11:39 49.03160 1.26237 27553 ft 414 kts 266°
2026-05-09 11:39 49.03177 1.21838 27936 ft 416 kts 266°
2026-05-09 11:40 49.03359 1.12987 28672 ft 420 kts 269°
2026-05-09 11:40 49.03521 1.08534 29051 ft 421 kts 269°
2026-05-09 11:40 49.03692 1.04068 29392 ft 423 kts 269°
2026-05-09 11:40 49.03855 0.99650 29729 ft 424 kts 269°
2026-05-09 11:41 49.04009 0.95090 30082 ft 426 kts 269°
2026-05-09 11:41 49.04147 0.90637 30379 ft 427 kts 269°
2026-05-09 11:41 49.04279 0.86101 30678 ft 429 kts 268°
2026-05-09 11:41 49.04404 0.81552 30953 ft 431 kts 268°
2026-05-09 11:42 49.04528 0.76994 31334 ft 430 kts 268°
2026-05-09 11:42 49.04652 0.72454 31736 ft 428 kts 268°
2026-05-09 11:42 49.04776 0.67928 32131 ft 427 kts 268°
2026-05-09 11:42 49.04899 0.63413 32521 ft 426 kts 268°
2026-05-09 11:43 49.05019 0.58908 32898 ft 425 kts 268°
2026-05-09 11:43 49.05135 0.54411 33272 ft 424 kts 268°
2026-05-09 11:43 49.05250 0.49926 33649 ft 423 kts 268°
2026-05-09 11:43 49.05364 0.45449 34012 ft 422 kts 269°
2026-05-09 11:44 49.05476 0.40975 34324 ft 422 kts 268°
2026-05-09 11:44 49.05586 0.36503 34579 ft 423 kts 268°
2026-05-09 11:44 49.05694 0.32020 34805 ft 424 kts 268°
2026-05-09 11:44 49.05801 0.27526 35036 ft 425 kts 268°
2026-05-09 11:45 49.05907 0.23018 35269 ft 426 kts 268°
2026-05-09 11:45 49.06012 0.18507 35501 ft 426 kts 268°
2026-05-09 11:45 49.06117 0.13985 35729 ft 427 kts 268°
2026-05-09 11:45 49.06221 0.09449 35944 ft 429 kts 268°
2026-05-09 11:46 49.06320 0.04903 36017 ft 429 kts 268°
2026-05-09 11:46 49.06513 -0.04186 36024 ft 429 kts 268°
2026-05-09 11:47 49.06700 -0.13265 36022 ft 429 kts 267°
2026-05-09 11:47 49.06877 -0.22353 36027 ft 429 kts 267°
2026-05-09 11:48 49.07052 -0.31441 36030 ft 429 kts 267°
2026-05-09 11:48 49.07218 -0.40496 36032 ft 429 kts 267°
2026-05-09 11:49 49.07376 -0.49612 36036 ft 429 kts 267°
2026-05-09 11:49 49.07532 -0.58722 36027 ft 433 kts 267°
2026-05-09 11:50 49.07678 -0.67935 36024 ft 440 kts 267°
2026-05-09 11:50 49.07815 -0.77283 36021 ft 442 kts 267°
2026-05-09 11:51 49.07945 -0.86650 36019 ft 442 kts 267°
2026-05-09 11:51 49.08070 -0.96049 36014 ft 444 kts 267°
2026-05-09 11:52 49.08189 -1.05471 36023 ft 445 kts 267°
2026-05-09 11:52 49.08310 -1.14903 36025 ft 446 kts 269°
2026-05-09 11:53 49.09466 -1.24262 36025 ft 453 kts 281°
2026-05-09 11:53 49.11100 -1.33541 36052 ft 453 kts 281°
2026-05-09 11:54 49.12718 -1.42840 36037 ft 454 kts 280°
2026-05-09 11:54 49.14332 -1.52161 36031 ft 454 kts 280°
2026-05-09 11:55 49.15938 -1.61492 36030 ft 455 kts 280°
2026-05-09 11:56 49.20733 -1.89555 36046 ft 455 kts 280°
2026-05-09 11:57 49.22308 -1.98933 36030 ft 455 kts 280°
2026-05-09 11:57 49.23867 -2.08237 36032 ft 455 kts 280°
2026-05-09 11:58 49.25434 -2.17632 36036 ft 456 kts 280°
2026-05-09 11:58 49.26995 -2.27034 36057 ft 456 kts 280°
2026-05-09 11:59 49.28548 -2.36456 36059 ft 456 kts 280°
2026-05-09 11:59 49.30097 -2.45886 36052 ft 456 kts 280°
2026-05-09 12:00 49.31641 -2.55348 36053 ft 457 kts 280°
2026-05-09 12:00 49.33173 -2.64795 36055 ft 457 kts 280°
2026-05-09 12:01 49.34701 -2.74242 36068 ft 457 kts 280°
2026-05-09 12:01 49.36222 -2.83696 36058 ft 456 kts 280°
2026-05-09 12:02 49.37729 -2.93149 36055 ft 456 kts 280°
2026-05-09 12:02 49.39225 -3.02605 36052 ft 456 kts 279°
2026-05-09 12:03 49.40715 -3.12057 36056 ft 456 kts 279°
2026-05-09 12:03 49.42203 -3.21524 36064 ft 456 kts 279°
2026-05-09 12:04 49.43682 -3.30995 36061 ft 456 kts 279°
2026-05-09 12:04 49.45154 -3.40469 36058 ft 456 kts 279°
2026-05-09 12:05 49.46615 -3.49948 36055 ft 456 kts 279°
2026-05-09 12:05 49.48060 -3.59427 36080 ft 455 kts 279°
2026-05-09 12:06 49.49503 -3.68916 36071 ft 455 kts 279°
2026-05-09 12:06 49.50938 -3.78402 36062 ft 455 kts 279°
2026-05-09 12:07 49.52362 -3.87832 36059 ft 456 kts 279°
2026-05-09 12:07 49.53788 -3.97334 36054 ft 455 kts 279°
2026-05-09 12:08 49.55201 -4.06840 36071 ft 456 kts 279°
2026-05-09 12:08 49.56604 -4.16360 36067 ft 456 kts 279°
2026-05-09 12:09 49.57997 -4.25891 36060 ft 456 kts 279°
2026-05-09 12:09 49.59755 -4.35290 36061 ft 461 kts 291°
2026-05-09 12:10 49.60872 -4.38867 36064 ft 461 kts 293°